QPF
0.22 0.10 0.01 0.00 0.00 0.00 0.00 0.00 0.00 0.00 0.00 0.00 0.00 0.00 0.00 0.00 0.00 0.00 0.00 0.00 0.00 0.00 0.00 0.00 0.00 0.00 0.00 0.00 0.00 0.00 0.00 0.00 0.00 0.00 0.01 0.02 0.01 0.00 0.00 0.00 0.00 0.00 0.00
0.39 0.13 0.01 0.00 0.00 0.00 0.00 0.00 0.00 0.00 0.00 0.00 0.00 0.00 0.00 0.00 0.00 0.00 0.00 0.00 0.00 0.00 0.00 0.00 0.00 0.00 0.00 0.00 0.00 0.00 0.02 0.02 0.01 0.03 0.07 0.10 0.08 0.04 0.02 0.00 0.00 0.00 0.00
0.22 0.12 0.05 0.02 0.00 0.00 0.00 0.00 0.00 0.00 0.00 0.00 0.00 0.00 0.00 0.00 0.00 0.00 0.00 0.00 0.00 0.00 0.00 0.00 0.00 0.00 0.00 0.00 0.00 0.00 0.01 0.02 0.03 0.02 0.04 0.01 0.02 0.03 0.01 0.00 0.01 0.01 0.01
0.00 0.01 0.00 0.00 0.00 0.00 0.00 0.00 0.00 0.00 0.00 0.00 0.00 0.00 0.00 0.00 0.00 0.00 0.00 0.00 0.00 0.00 0.00 0.00 0.00 0.00 0.00 0.00 0.00 0.00 0.00 0.00 0.00 0.00 0.00 0.01 0.02 0.01 0.02 0.01 0.02 0.02 0.00
0.00 0.00 0.00 0.01 0.01 0.00 0.00 0.00 0.00 0.00 0.00 0.00 0.00 0.00 0.00 0.00 0.00 0.00 0.00 0.00 0.00 0.00 0.00 0.00 0.00 0.00 0.00 0.00 0.00 0.00 0.00 0.00 0.00 0.00 0.01 0.01 0.02 0.02 0.02 0.03 0.03 0.02 0.00
0.00 0.00 0.03 0.05 0.05 0.00 0.00 0.00 0.00 0.00 0.00 0.00 0.00 0.00 0.00 0.00 0.00 0.00 0.00 0.00 0.00 0.00 0.00 0.00 0.00 0.00 0.00 0.00 0.00 0.00 0.00 0.00 0.00 0.00 0.00 0.00 0.00 0.00 0.01 0.01 0.00 0.00 0.00
0.02 0.05 0.09 0.16 0.09 0.09 0.08 0.03 0.01 0.00 0.00 0.00 0.00 0.00 0.00 0.00 0.00 0.00 0.00 0.00 0.00 0.00 0.00 0.00 0.00 0.00 0.00 0.00 0.00 0.00 0.00 0.00 0.00 0.00 0.00 0.00 0.00 0.00 0.00 0.00 0.00 0.01 0.00
0.13 0.13 0.19 0.20 0.31 0.51 0.21 0.10 0.02 0.00 0.00 0.00 0.00 0.00 0.00 0.00 0.00 0.00 0.00 0.00 0.00 0.00 0.00 0.00 0.00 0.00 0.00 0.00 0.00 0.00 0.00 0.00 0.00 0.00 0.00 0.00 0.00 0.00 0.00 0.00 0.00 0.00 0.00
0.14 0.12 0.11 0.04 0.08 0.22 0.25 0.23 0.07 0.01 0.00 0.00 0.00 0.00 0.00 0.00 0.00 0.00 0.00 0.00 0.00 0.00 0.00 0.00 0.00 0.00 0.00 0.00 0.00 0.00 0.00 0.00 0.00 0.00 0.00 0.00 0.00 0.00 0.00 0.00 0.00 0.00 0.00
0.05 0.04 0.05 0.02 0.01 0.06 0.14 0.26 0.16 0.06 0.01 0.00 0.00 0.00 0.00 0.00 0.00 0.00 0.00 0.00 0.00 0.00 0.00 0.00 0.00 0.00 0.00 0.00 0.00 0.00 0.00 0.00 0.00 0.00 0.00 0.00 0.00 0.00 0.00 0.00 0.00 0.00 0.00
0.00 0.00 0.04 0.09 0.09 0.08 0.07 0.17 0.23 0.06 0.01 0.00 0.00 0.00 0.00 0.00 0.00 0.00 0.00 0.00 0.00 0.00 0.00 0.00 0.00 0.00 0.00 0.00 0.00 0.00 0.00 0.00 0.00 0.00 0.00 0.00 0.00 0.00 0.00 0.00 0.00 0.00 0.00
0.12 0.07 0.03 0.03 0.07 0.22 0.29 0.27 0.11 0.09 0.02 0.00 0.00 0.00 0.00 0.00 0.00 0.01 0.00 0.00 0.00 0.00 0.00 0.00 0.00 0.00 0.00 0.00 0.00 0.00 0.00 0.00 0.00 0.00 0.00 0.00 0.00 0.00 0.00 0.00 0.00 0.00 0.00
0.06 0.08 0.06 0.02 0.01 0.10 0.31 0.31 0.13 0.07 0.02 0.00 0.00 0.00 0.00 0.00 0.00 0.00 0.00 0.01 0.01 0.00 0.00 0.00 0.00 0.00 0.00 0.00 0.00 0.00 0.00 0.00 0.00 0.00 0.00 0.00 0.00 0.00 0.00 0.00 0.00 0.00 0.00
0.01 0.03 0.05 0.04 0.04 0.05 0.05 0.07 0.08 0.03 0.02 0.01 0.00 0.00 0.00 0.00 0.00 0.00 0.00 0.00 0.00 0.00 0.00 0.00 0.00 0.00 0.00 0.00 0.00 0.00 0.00 0.00 0.00 0.00 0.00 0.00 0.00 0.00 0.00 0.00 0.00 0.00 0.00
0.00 0.00 0.00 0.00 0.01 0.02 0.03 0.04 0.04 0.03 0.03 0.01 0.00 0.00 0.00 0.00 0.00 0.00 0.00 0.00 0.00 0.00 0.00 0.00 0.00 0.00 0.00 0.00 0.00 0.00 0.00 0.00 0.00 0.00 0.00 0.00 0.00 0.00 0.00 0.00 0.00 0.00 0.00
0.00 0.00 0.00 0.00 0.01 0.01 0.01 0.02 0.04 0.03 0.02 0.01 0.00 0.00 0.00 0.00 0.00 0.00 0.00 0.00 0.00 0.00 0.00 0.00 0.00 0.00 0.00 0.00 0.00 0.00 0.00 0.00 0.00 0.00 0.00 0.00 0.00 0.00 0.00 0.00 0.00 0.00 0.00
0.00 0.00 0.00 0.00 0.00 0.00 0.00 0.00 0.00 0.00 0.00 0.00 0.00 0.00 0.00 0.00 0.00 0.00 0.00 0.00 0.00 0.00 0.00 0.00 0.00 0.00 0.00 0.00 0.00 0.00 0.00 0.00 0.00 0.00 0.00 0.00 0.00 0.00 0.00 0.00 0.00 0.00 0.00
0.00 0.00 0.00 0.00 0.00 0.00 0.00 0.00 0.00 0.00 0.00 0.00 0.00 0.00 0.00 0.00 0.00 0.00 0.00 0.00 0.00 0.00 0.00 0.00 0.00 0.00 0.00 0.00 0.00 0.00 0.00 0.00 0.00 0.00 0.00 0.00 0.00 0.00 0.00 0.00 0.00 0.00 0.00
0.00 0.00 0.00 0.00 0.00 0.00 0.00 0.00 0.00 0.00 0.00 0.00 0.00 0.00 0.00 0.00 0.00 0.00 0.00 0.00 0.00 0.00 0.00 0.00 0.00 0.00 0.00 0.00 0.00 0.00 0.00 0.00 0.00 0.00 0.00 0.00 0.00 0.00 0.00 0.00 0.00 0.00 0.00
0.00 0.00 0.00 0.00 0.00 0.00 0.00 0.00 0.00 0.00 0.00 0.00 0.00 0.00 0.00 0.00 0.00 0.00 0.00 0.00 0.00 0.00 0.00 0.00 0.00 0.00 0.00 0.00 0.00 0.00 0.00 0.00 0.00 0.00 0.00 0.00 0.00 0.00 0.00 0.00 0.00 0.00 0.00
0.00 0.00 0.00 0.00 0.00 0.00 0.00 0.00 0.00 0.00 0.00 0.00 0.00 0.00 0.00 0.00 0.00 0.00 0.00 0.00 0.00 0.00 0.00 0.00 0.00 0.00 0.00 0.00 0.00 0.00 0.00 0.00 0.00 0.00 0.00 0.00 0.00 0.00 0.00 0.00 0.00 0.00 0.00
0.00 0.00 0.00 0.00 0.00 0.00 0.00 0.00 0.00 0.00 0.00 0.00 0.00 0.00 0.00 0.00 0.00 0.00 0.00 0.00 0.00 0.00 0.00 0.00 0.00 0.00 0.00 0.00 0.00 0.00 0.00 0.00 0.00 0.00 0.00 0.00 0.00 0.00 0.00 0.00 0.00 0.00 0.00
0.00 0.00 0.00 0.00 0.00 0.00 0.00 0.00 0.00 0.00 0.00 0.00 0.00 0.00 0.00 0.00 0.00 0.00 0.00 0.00 0.00 0.00 0.00 0.00 0.00 0.00 0.00 0.00 0.00 0.00 0.00 0.00 0.00 0.00 0.00 0.00 0.00 0.00 0.00 0.00 0.00 0.00 0.00
0.00 0.00 0.00 0.00 0.00 0.00 0.00 0.00 0.00 0.00 0.00 0.00 0.00 0.00 0.00 0.00 0.00 0.00 0.00 0.00 0.00 0.00 0.00 0.00 0.00 0.00 0.00 0.00 0.00 0.00 0.00 0.00 0.00 0.00 0.00 0.00 0.00 0.00 0.00 0.00 0.00 0.00 0.00
0.00 0.00 0.00 0.00 0.00 0.00 0.00 0.00 0.00 0.00 0.00 0.00 0.00 0.00 0.00 0.00 0.00 0.00 0.00 0.00 0.00 0.00 0.00 0.00 0.00 0.00 0.00 0.00 0.00 0.00 0.00 0.00 0.00 0.00 0.00 0.00 0.00 0.00 0.00 0.00 0.00 0.00 0.00
0.00 0.00 0.00 0.00 0.00 0.00 0.00 0.00 0.00 0.00 0.00 0.00 0.00 0.00 0.00 0.00 0.00 0.00 0.00 0.00 0.00 0.00 0.00 0.00 0.00 0.00 0.00 0.00 0.00 0.00 0.00 0.00 0.00 0.00 0.00 0.00 0.00 0.00 0.00 0.00 0.00 0.00 0.00
MSLP
1015.24 1015.80 1015.82 1016.38 1016.79 1017.23 1017.63 1017.86 1017.81 1017.80 1017.95 1017.86 1017.47 1017.31 1017.02 1017.03 1017.02 1016.83 1016.75 1016.79 1016.62 1016.44 1016.34 1016.22 1016.16 1016.15 1016.25 1016.41 1016.35 1016.41 1016.57 1016.82 1017.74 1018.79 1019.33 1019.75 1020.00 1020.20 1020.32 1020.38 1020.60 1020.75 1020.68
1015.27 1015.90 1015.94 1016.65 1016.87 1017.35 1017.80 1017.93 1018.14 1018.15 1018.29 1018.27 1017.92 1017.83 1017.78 1017.45 1017.64 1017.46 1017.34 1017.42 1017.42 1017.19 1017.10 1016.80 1016.67 1016.59 1016.68 1016.76 1016.72 1016.69 1016.80 1017.00 1017.49 1018.56 1019.33 1020.03 1020.28 1020.58 1020.79 1021.05 1021.31 1021.27 1021.27
1014.57 1015.34 1016.27 1016.69 1017.18 1017.70 1017.95 1018.30 1018.48 1018.59 1018.74 1018.49 1018.47 1018.59 1018.44 1018.40 1018.10 1018.02 1017.99 1018.00 1018.11 1018.03 1017.94 1017.72 1017.60 1017.32 1017.36 1017.43 1017.42 1017.41 1017.38 1017.40 1017.73 1018.38 1019.38 1020.15 1020.78 1021.17 1021.48 1021.65 1021.82 1021.95 1021.85
1015.56 1015.88 1016.27 1016.52 1017.08 1017.75 1018.02 1018.42 1018.76 1019.08 1019.06 1018.87 1018.98 1019.10 1019.10 1019.03 1018.74 1018.79 1018.74 1018.75 1018.82 1018.76 1018.70 1018.53 1018.36 1018.21 1018.16 1018.07 1018.07 1018.11 1017.97 1018.03 1018.34 1018.85 1019.57 1020.29 1020.90 1021.50 1021.62 1021.92 1022.27 1022.51 1022.64
1015.73 1016.15 1016.31 1016.61 1017.21 1017.81 1018.25 1018.59 1019.03 1019.26 1019.41 1019.32 1019.17 1019.20 1019.42 1019.51 1019.53 1019.57 1019.50 1019.50 1019.68 1019.70 1019.58 1019.43 1019.29 1019.05 1018.78 1018.66 1018.60 1018.79 1018.66 1018.70 1018.97 1019.31 1019.78 1020.40 1021.00 1021.46 1021.71 1022.03 1022.39 1022.58 1022.85
1016.02 1016.22 1016.60 1016.99 1017.36 1018.10 1018.68 1018.95 1019.28 1019.57 1019.68 1019.66 1019.64 1019.54 1019.60 1019.93 1019.86 1019.96 1020.09 1020.14 1020.33 1020.34 1020.39 1020.34 1020.07 1019.79 1019.63 1019.45 1019.40 1019.39 1019.32 1019.28 1019.49 1019.81 1020.23 1020.57 1021.03 1021.36 1021.75 1022.06 1022.43 1022.56 1022.78
1016.09 1016.29 1016.76 1017.29 1017.51 1017.85 1018.72 1019.40 1019.67 1019.94 1020.10 1020.16 1020.12 1019.90 1020.11 1020.25 1020.20 1020.13 1020.19 1020.57 1020.94 1021.09 1021.06 1020.95 1020.80 1020.76 1020.49 1020.39 1020.27 1020.16 1020.16 1020.07 1020.00 1020.07 1020.50 1020.86 1021.02 1021.23 1021.59 1022.05 1022.27 1022.36 1022.55
1015.98 1016.29 1016.73 1017.05 1016.97 1016.72 1017.94 1019.13 1019.78 1019.96 1020.26 1020.58 1020.62 1020.52 1020.43 1020.74 1020.62 1020.62 1020.68 1020.84 1021.16 1021.42 1021.50 1021.47 1021.41 1021.43 1021.34 1021.14 1021.10 1021.11 1021.13 1021.09 1021.04 1021.03 1021.25 1021.38 1021.16 1021.26 1021.40 1021.61 1021.97 1022.34 1022.52
1015.14 1015.28 1015.56 1016.64 1017.18 1016.70 1017.99 1018.87 1019.47 1019.97 1020.50 1020.77 1020.87 1020.87 1020.84 1020.99 1021.08 1021.14 1021.19 1021.37 1021.63 1021.83 1021.81 1021.72 1021.68 1021.76 1021.72 1021.64 1021.69 1021.87 1021.90 1021.92 1021.82 1021.87 1021.98 1021.97 1021.98 1021.92 1021.90 1021.70 1021.91 1022.22 1022.40
1015.42 1015.65 1016.10 1015.97 1016.27 1016.69 1017.59 1018.09 1019.03 1019.78 1020.42 1020.80 1021.14 1021.19 1021.35 1021.38 1021.52 1021.53 1021.66 1021.83 1022.06 1022.21 1022.23 1022.20 1022.21 1022.19 1022.06 1022.03 1022.21 1022.33 1022.30 1022.36 1022.16 1022.06 1022.25 1022.36 1022.36 1022.40 1022.36 1022.26 1022.06 1022.14 1022.38
1016.14 1016.16 1016.50 1016.57 1016.53 1016.81 1017.11 1017.81 1018.77 1019.64 1020.39 1021.06 1021.34 1021.55 1021.64 1021.71 1021.74 1021.69 1021.73 1021.89 1022.09 1022.41 1022.59 1022.76 1022.86 1022.89 1022.87 1022.78 1022.49 1022.77 1022.66 1022.65 1022.70 1022.65 1022.72 1022.81 1022.72 1022.61 1022.59 1022.67 1022.44 1022.25 1022.26
1016.91 1017.12 1017.09 1016.92 1017.01 1016.84 1017.24 1017.53 1018.49 1019.60 1020.32 1021.09 1021.36 1021.64 1021.94 1021.89 1021.89 1021.83 1021.83 1021.98 1022.31 1022.52 1022.91 1023.16 1023.18 1023.26 1023.06 1023.05 1022.77 1023.02 1022.91 1022.87 1022.90 1022.96 1022.98 1022.98 1022.96 1022.97 1022.95 1022.85 1022.73 1022.58 1022.58
1016.70 1017.14 1017.51 1017.23 1017.04 1016.73 1017.01 1017.86 1018.76 1019.59 1020.48 1021.21 1021.52 1021.93 1022.15 1022.17 1022.24 1022.11 1022.25 1022.25 1022.45 1022.75 1023.06 1023.29 1023.28 1023.38 1023.32 1023.11 1023.33 1023.33 1023.26 1023.21 1023.16 1023.11 1023.20 1023.22 1023.35 1023.34 1023.25 1022.92 1022.83 1022.88 1022.86
1017.10 1017.50 1017.31 1017.21 1017.39 1017.30 1017.56 1018.10 1018.82 1019.79 1020.57 1021.18 1021.57 1022.02 1022.31 1022.52 1022.56 1022.58 1022.51 1022.58 1022.76 1022.89 1023.04 1023.17 1023.43 1023.47 1023.48 1023.60 1023.52 1023.46 1023.48 1023.49 1023.46 1023.44 1023.49 1023.60 1023.61 1023.46 1023.31 1023.26 1023.04 1022.96 1022.72
1017.74 1017.68 1017.80 1017.93 1018.05 1018.26 1018.69 1018.86 1019.26 1020.14 1020.52 1021.03 1021.52 1021.90 1022.31 1022.67 1022.91 1022.81 1022.75 1022.87 1023.04 1023.14 1023.27 1023.57 1023.65 1023.61 1023.62 1023.76 1023.84 1023.87 1023.84 1023.78 1023.79 1023.91 1023.84 1023.75 1023.66 1023.57 1023.40 1023.39 1023.29 1023.10 1022.83
1017.78 1018.21 1018.52 1018.53 1018.73 1018.95 1019.30 1019.77 1020.40 1020.61 1021.04 1021.43 1021.68 1021.90 1022.54 1022.66 1022.99 1023.09 1023.10 1023.16 1023.20 1023.33 1023.59 1023.68 1023.66 1023.59 1023.62 1023.69 1023.84 1023.99 1024.06 1024.02 1024.07 1024.08 1024.04 1024.02 1023.90 1023.74 1023.52 1023.40 1023.41 1023.19 1022.91
1018.00 1018.16 1018.57 1018.79 1019.23 1019.38 1019.70 1020.02 1020.79 1021.51 1021.86 1022.24 1022.34 1022.47 1022.44 1023.18 1023.20 1023.18 1023.21 1023.48 1023.45 1023.48 1023.56 1023.65 1023.61 1023.54 1023.62 1023.88 1024.05 1024.15 1024.04 1024.13 1024.21 1024.22 1024.13 1024.05 1023.99 1023.80 1023.70 1023.52 1023.37 1023.18 1022.90
1018.14 1018.44 1018.51 1019.03 1019.37 1019.72 1019.95 1020.41 1020.90 1021.33 1022.05 1022.69 1023.08 1023.11 1023.17 1023.24 1023.30 1023.36 1023.42 1023.39 1023.75 1023.70 1023.64 1023.54 1023.45 1023.44 1023.73 1023.91 1024.07 1024.15 1024.19 1024.25 1024.20 1024.18 1024.16 1024.12 1024.05 1023.85 1023.56 1023.43 1023.32 1023.21 1023.05
1018.08 1018.62 1018.83 1018.93 1019.36 1019.80 1020.18 1020.53 1020.98 1021.57 1022.09 1022.57 1023.08 1023.30 1023.40 1023.43 1023.37 1023.43 1023.48 1023.47 1023.48 1023.50 1023.51 1023.50 1023.58 1023.61 1023.69 1023.84 1023.97 1024.11 1024.16 1024.18 1024.17 1024.16 1024.10 1024.03 1023.93 1023.79 1023.49 1023.36 1023.15 1023.03 1022.99
1018.18 1018.38 1018.59 1018.97 1019.43 1019.90 1020.27 1020.78 1021.40 1021.75 1022.11 1022.39 1022.70 1022.82 1023.18 1023.32 1023.25 1023.26 1023.41 1023.44 1023.40 1023.40 1023.42 1023.31 1023.32 1023.49 1023.66 1023.82 1023.90 1023.98 1024.02 1024.07 1024.04 1024.01 1023.90 1023.82 1023.69 1023.61 1023.34 1023.09 1022.90 1022.74 1022.54
1018.01 1018.41 1018.70 1018.97 1019.36 1019.73 1020.31 1020.86 1021.29 1021.62 1021.84 1022.05 1022.10 1022.32 1022.46 1022.56 1022.61 1022.84 1023.02 1023.18 1023.11 1023.06 1023.02 1023.01 1023.02 1023.12 1023.32 1023.48 1023.64 1023.76 1023.81 1023.79 1023.79 1023.71 1023.63 1023.52 1023.44 1023.26 1023.08 1022.87 1022.63 1022.38 1022.19
1017.71 1018.15 1018.50 1018.81 1019.25 1019.72 1020.15 1020.52 1020.89 1021.30 1021.59 1021.68 1021.77 1022.08 1022.26 1022.40 1022.36 1022.41 1022.63 1022.75 1022.76 1022.84 1022.70 1022.82 1022.82 1022.97 1023.20 1023.39 1023.52 1023.73 1023.80 1023.85 1023.88 1023.77 1023.57 1023.40 1023.23 1023.03 1022.86 1022.59 1022.25 1021.94 1021.64
1017.65 1017.97 1018.29 1018.63 1018.90 1019.26 1019.74 1020.02 1020.31 1020.52 1020.58 1020.68 1020.93 1021.13 1021.48 1021.75 1022.08 1022.31 1022.49 1022.59 1022.68 1022.78 1022.90 1022.78 1022.94 1023.53 1023.84 1023.95 1024.20 1023.79 1024.17 1024.33 1024.27 1024.10 1023.71 1023.29 1022.98 1022.69 1022.46 1022.10 1021.74 1021.45 1021.26
1017.47 1017.60 1017.73 1018.01 1018.41 1018.80 1019.16 1019.40 1019.52 1019.70 1020.03 1020.01 1020.18 1020.52 1020.75 1021.17 1021.63 1021.99 1022.34 1022.69 1022.90 1023.20 1023.36 1023.53 1023.74 1023.94 1024.27 1024.45 1024.52 1024.63 1024.53 1024.59 1024.42 1024.09 1023.86 1023.25 1022.86 1022.55 1022.26 1021.94 1021.63 1021.32 1020.98
1017.10 1017.24 1017.53 1017.89 1018.17 1018.42 1018.76 1019.04 1019.32 1019.51 1019.61 1019.68 1019.88 1020.24 1020.60 1021.00 1021.54 1022.00 1022.48 1022.75 1023.14 1023.46 1023.85 1024.07 1024.29 1024.55 1024.68 1024.73 1024.80 1024.81 1024.99 1024.86 1024.45 1024.31 1023.73 1023.38 1023.05 1022.81 1022.51 1022.11 1021.79 1021.33 1020.95
1016.78 1017.05 1017.42 1017.76 1018.06 1018.25 1018.46 1018.82 1019.22 1019.50 1019.64 1019.88 1020.10 1020.48 1020.83 1021.19 1021.69 1022.15 1022.56 1022.89 1023.32 1023.75 1024.17 1024.48 1024.72 1024.84 1024.91 1024.98 1025.04 1025.23 1025.21 1025.04 1024.67 1024.42 1023.85 1023.61 1023.39 1023.14 1022.82 1022.47 1022.09 1021.57 1021.19
Thickness
5717 5716 5721 5720 5720 5719 5717 5715 5714 5714 5711 5712 5717 5718 5719 5719 5718 5719 5720 5717 5716 5716 5713 5712 5712 5712 5710 5708 5708 5708 5706 5705 5696 5689 5687 5685 5682 5681 5677 5676 5673 5671 5672
5709 5712 5719 5717 5717 5715 5713 5712 5709 5708 5705 5706 5711 5713 5712 5716 5712 5714 5715 5713 5710 5709 5708 5709 5709 5709 5706 5705 5704 5704 5703 5702 5698 5690 5685 5680 5678 5674 5671 5668 5664 5663 5662
5722 5720 5719 5718 5714 5710 5709 5706 5704 5702 5700 5703 5704 5704 5706 5706 5709 5710 5709 5708 5705 5704 5702 5702 5701 5702 5700 5699 5699 5698 5698 5698 5695 5689 5681 5675 5669 5665 5662 5658 5655 5653 5652
5726 5724 5721 5721 5713 5707 5706 5702 5698 5695 5696 5698 5697 5698 5698 5699 5701 5701 5701 5700 5697 5696 5695 5695 5694 5693 5692 5692 5691 5690 5691 5689 5686 5682 5675 5669 5664 5658 5655 5652 5647 5643 5640
5727 5724 5723 5719 5711 5706 5703 5701 5695 5693 5692 5694 5695 5695 5693 5694 5693 5691 5691 5691 5688 5686 5684 5683 5684 5684 5685 5685 5685 5682 5682 5680 5676 5673 5668 5663 5656 5652 5648 5644 5639 5635 5631
5721 5720 5718 5715 5711 5702 5697 5694 5691 5688 5688 5689 5689 5691 5691 5688 5687 5686 5685 5682 5678 5676 5674 5672 5673 5674 5674 5674 5673 5672 5672 5671 5667 5663 5659 5655 5650 5645 5640 5636 5631 5628 5625
5717 5712 5708 5705 5705 5702 5693 5687 5684 5682 5682 5682 5682 5685 5683 5681 5681 5682 5680 5675 5670 5667 5666 5665 5664 5662 5663 5663 5662 5661 5660 5659 5658 5656 5650 5646 5642 5638 5632 5626 5623 5621 5616
5710 5704 5699 5698 5701 5704 5692 5683 5680 5678 5675 5673 5674 5675 5675 5673 5673 5673 5671 5668 5664 5660 5658 5656 5655 5653 5652 5653 5652 5650 5647 5645 5643 5641 5637 5634 5632 5629 5626 5621 5615 5608 5603
5716 5712 5705 5699 5693 5700 5686 5681 5677 5673 5668 5667 5668 5668 5668 5667 5663 5662 5661 5659 5656 5652 5651 5650 5649 5647 5645 5643 5642 5638 5635 5632 5630 5627 5624 5621 5618 5615 5611 5609 5605 5599 5594
5710 5708 5704 5705 5701 5697 5691 5685 5676 5671 5665 5663 5660 5660 5658 5659 5657 5656 5653 5651 5648 5645 5644 5642 5641 5640 5639 5636 5632 5629 5626 5621 5619 5617 5612 5608 5605 5601 5598 5593 5593 5588 5583
5703 5704 5700 5698 5698 5695 5693 5686 5677 5669 5664 5657 5654 5652 5651 5651 5652 5651 5649 5646 5643 5639 5636 5633 5630 5628 5626 5624 5623 5619 5616 5611 5607 5604 5600 5595 5591 5588 5584 5579 5578 5576 5573
5692 5691 5692 5693 5691 5693 5689 5685 5674 5665 5662 5655 5652 5649 5646 5646 5645 5645 5642 5639 5635 5633 5628 5623 5620 5617 5617 5612 5610 5607 5603 5600 5596 5591 5587 5583 5579 5575 5570 5567 5564 5562 5557
5695 5689 5685 5688 5687 5691 5687 5676 5667 5662 5655 5648 5646 5643 5641 5641 5639 5638 5634 5632 5627 5622 5617 5613 5610 5607 5603 5601 5596 5592 5589 5585 5582 5579 5574 5569 5564 5559 5556 5554 5551 5547 5543
5690 5684 5686 5684 5683 5683 5679 5673 5666 5656 5649 5644 5640 5636 5633 5631 5630 5627 5625 5622 5616 5612 5607 5603 5598 5595 5592 5587 5585 5580 5575 5571 5568 5564 5559 5553 5549 5547 5545 5541 5539 5535 5534
5679 5680 5678 5675 5673 5670 5665 5662 5658 5648 5645 5639 5634 5630 5627 5623 5620 5618 5615 5612 5608 5602 5597 5591 5589 5585 5582 5576 5571 5566 5562 5558 5554 5548 5545 5542 5539 5535 5533 5528 5525 5523 5522
5673 5669 5665 5664 5661 5659 5655 5649 5639 5636 5633 5631 5627 5623 5616 5614 5609 5606 5603 5600 5596 5591 5585 5581 5577 5573 5570 5566 5561 5554 5549 5544 5540 5536 5533 5530 5527 5524 5522 5518 5514 5512 5512
5666 5663 5657 5655 5650 5649 5646 5643 5633 5623 5619 5615 5613 5609 5606 5601 5597 5594 5591 5587 5584 5579 5575 5569 5566 5562 5559 5553 5547 5542 5540 5534 5528 5525 5522 5519 5515 5513 5510 5507 5504 5502 5502
5653 5651 5652 5646 5642 5637 5634 5628 5624 5620 5612 5605 5598 5596 5593 5589 5586 5583 5580 5577 5572 5567 5563 5560 5557 5553 5547 5542 5537 5532 5528 5524 5520 5516 5512 5508 5504 5501 5500 5497 5494 5491 5488
5646 5641 5639 5638 5632 5626 5621 5616 5612 5605 5600 5594 5588 5584 5580 5577 5576 5573 5569 5566 5562 5559 5554 5550 5545 5541 5537 5532 5528 5523 5519 5515 5510 5506 5502 5498 5494 5490 5489 5485 5483 5476 5474
5636 5634 5631 5627 5621 5614 5610 5604 5597 5592 5587 5584 5579 5576 5571 5569 5567 5564 5558 5555 5552 5549 5545 5543 5539 5533 5528 5524 5519 5514 5510 5505 5501 5496 5492 5488 5484 5480 5478 5476 5473 5471 5469
5628 5624 5620 5616 5611 5606 5600 5594 5588 5583 5579 5575 5573 5569 5565 5564 5561 5555 5551 5547 5544 5541 5539 5535 5532 5528 5522 5517 5511 5506 5501 5497 5493 5488 5484 5480 5475 5472 5469 5466 5463 5461 5459
5619 5614 5610 5606 5600 5595 5591 5586 5581 5576 5571 5569 5565 5560 5554 5554 5552 5550 5545 5541 5537 5532 5530 5526 5523 5518 5512 5507 5501 5496 5491 5487 5481 5477 5474 5470 5467 5464 5460 5458 5456 5454 5453
5608 5604 5600 5596 5593 5589 5585 5580 5576 5572 5570 5567 5563 5560 5555 5551 5545 5541 5536 5532 5527 5524 5520 5517 5512 5504 5499 5493 5488 5486 5479 5473 5469 5465 5463 5462 5459 5457 5455 5453 5452 5449 5447
5598 5596 5595 5593 5588 5584 5579 5576 5574 5568 5566 5564 5561 5557 5553 5547 5540 5535 5529 5523 5519 5514 5508 5503 5498 5492 5486 5481 5476 5471 5467 5462 5458 5455 5452 5451 5451 5449 5447 5445 5442 5440 5437
5591 5590 5588 5584 5581 5578 5574 5571 5567 5564 5560 5559 5556 5551 5546 5540 5532 5525 5519 5515 5509 5503 5496 5490 5485 5479 5474 5469 5464 5459 5455 5451 5448 5446 5443 5440 5438 5436 5434 5433 5430 5429 5427
5586 5584 5580 5577 5573 5570 5567 5564 5560 5555 5552 5549 5545 5539 5534 5528 5521 5515 5510 5505 5498 5491 5484 5478 5473 5467 5462 5456 5451 5446 5443 5439 5437 5435 5433 5430 5427 5424 5421 5419 5417 5416 5414